Current weather by "City, St" or "zip code"  
 
Advertise Here

Current Conditions: Millinocket, Millinocket Municipal Airport, ME

Overcast


33.0 F

Last Updated on Jan 27 2021, 1:53 pm EST
Humidity: 64%
Wind Speed: NE 4.6 mph
Barometer 30.01 in
Dewpoint: 21.9 F
Visibility: 10.00 mi
Precip: --
Heat Index: NA
Wind Chill: 29 F
Current conditions at:

Millinocket, Millinocket Municipal Airport, ME (KMLT)

Lat: 45.64778 Lon: 68.69194

Local Radar Image active severe weather and emergency alerts image image weather storm and storm spotter reports image weather observation monitoring service image
Local
Radar
Active
Alerts
Storm Reports Obs
Monitoring

Sign-up For Email & Text Message Weather Alert Notification Services


Advertise Here

Observation History for Millinocket, Millinocket Municipal Airport, ME


Time Wind
(mph)
Vis
(mi)
Weather Precip (in) Temperature (F) Relative
Humidity
Wind
Chill
(F)
Heat
Index
(F)
Pressure
Air Dwpt altimeter
(in)
sea level
(mb)
Rmks
1:53 pm EST NE 4.6 10.00 Overcast -- 33.0 21.9 64% 29 NA 30.01 1017.3
12:53 pm EST NE 5.8 10.00 Overcast -- 32.0 23.0 69% 26 NA 30.02 1017.5
11:53 am EST E 4.6 10.00 Overcast -- 32.0 24.1 73% 27 NA 30.03 1018.0
10:53 am EST E 8.1 10.00 Overcast -- 30.0 24.1 79% 22 NA 30.05 1018.7
9:53 am EST E 8.1 10.00 Overcast -- 30.0 24.1 79% 22 NA 30.05 1018.7
8:53 am EST NE 5.8 10.00 Overcast -- 29.0 25.0 85% 23 NA 30.05 1018.6
7:53 am EST N 4.6 10.00 Overcast -- 28.0 25.0 88% 23 NA 30.04 1018.1
6:53 am EST N 3.5 10.00 Overcast -- 28.0 25.0 88% NA NA 30.01 1017.4
5:53 am EST NE 3.5 9.00 Overcast -- 28.0 24.1 85% NA NA 29.99 1016.7
4:53 am EST NE 4.6 10.00 Overcast -- 27.0 25.0 92% 22 NA 29.98 1016.3
3:53 am EST NE 3.5 10.00 Overcast -- 27.0 25.0 92% NA NA 29.97 1015.8
2:49 am EST NE 3.5 4.00 Fog/Mist -- 27.0 25.0 92% NA NA 29.98 1016.1
1:53 am EST NE 5.8 5.00 Fog/Mist -- 27.0 24.1 89% 20 NA 29.99 1016.6
12:53 am EST NE 6.9 10.00 Overcast -- 27.0 23.0 85% 20 NA 29.99 1016.7
11:53 pm EST NE 4.6 10.00 Overcast -- 28.0 21.0 75% 23 NA 30.02 1017.4
10:53 pm EST NE 3.5 10.00 Overcast -- 28.0 21.0 75% NA NA 30.03 1018.1
9:53 pm EST N 3.5 10.00 Overcast -- 28.0 19.9 72% NA NA 30.03 1017.9
8:53 pm EST N 0.0 10.00 Overcast -- 28.0 21.0 75% NA NA 30.02 1017.8
7:53 pm EST NE 6.9 10.00 Overcast -- 28.0 19.9 72% 21 NA 30.03 1018.0
6:53 pm EST E 5.8 10.00 Overcast -- 28.0 19.9 72% 22 NA 30.01 1017.6
5:53 pm EST NE 4.6 10.00 Overcast -- 28.0 19.0 69% 23 NA 30.01 1017.4
4:53 pm EST NE 3.5 10.00 Overcast -- 29.0 19.0 66% NA NA 30.01 1017.3
3:53 pm EST N 0.0 10.00 Mostly Cloudy -- 30.0 19.0 64% NA NA 30.00 1017.0
2:53 pm EST N 8.1 10.00 Fair -- 31.0 19.0 61% 24 NA 29.99 1016.7

Regional Weather Observation


Greenville, ME (KGNR)

NULL
30.0 F

Clayton Lake, ME (K40B)

NULL
30.0 F

Presque Isle, ME (KPQI)

Mostly Cloudy
33.0 F

Houlton, Houlton International Airport, ME (KHUL)

Overcast
32.0 F

Caribou, Caribou Municipal Airport, ME (KCAR)

Overcast
33.0 F

Bangor, Bangor International Airport, ME (KBGR)

Overcast
36.0 F